Location: Marse
(42.1502°N, 110.9866°W)
Time: 09:19:43
(UTC+00:00)

Oscar 19 - Pass Details

Date: 02 July 2022
Orbit: 773 x 790 km, 98.8° (Epoch: 13 August)

Event Time Altitude Azimuth Distance (km) Brightness Sun altitude
Rises 09:55:59 0° 27° (NNE) 3,259 15.6 -16.4°
Reaches altitude 10° 09:58:48 10° 43° (NE) 2,326 14.4 -16.1°
Maximum altitude 10:02:46 22° 94° (E) 1,622 12.7 -15.7°
Drops below altitude 10° 10:06:43 10° 145° (SE) 2,314 12.9 -15.2°
Enters shadow 10:09:16 - 159° (SSE) 3,151 13.5 -14.9°
